When you browse on this site, cookies collect data to enhance your experience and personalize the content and advertising you see.
Visit our Privacy Policy to learn more. By continuing to use the site, you agree to this use of cookies and data.
  • In Austria
  • List of Countries
  • For 7 days
  • Water Temperature
  • Weather Map
  • News
  • Weather Widgets
  • user-avatar
    Login

    Hourly Weather Vinh

    Today, 25 February, Tuesday

    Time Temperature Precipitation Wind Pressure Humidity
    00:00 +19°C° 0 mm 0 mps 750 mmHg 96%
    01:00 +19°C° 0 mm 0 mps 750 mmHg 96%
    02:00 +19°C° 0 mm 0 mps 749 mmHg 95%
    03:00 +19°C° 0 mm 0 mps 749 mmHg 94%
    04:00 +19°C° 0 mm 0 mps 749 mmHg 93%
    05:00 +19°C° 0 mm 0 mps 749 mmHg 93%
    06:00 +19°C° 0 mm 0 mps 750 mmHg 92%
    07:00 +19°C° 0 mm 0 mps 750 mmHg 91%
    08:00 +21°C° 0 mm 0 mps 750 mmHg 83%
    09:00 +24°C° 0 mm 1 mps 751 mmHg 75%
    10:00 +26°C° 0 mm 1 mps 751 mmHg 67%
    11:00 +27°C° 0 mm 1 mps 750 mmHg 64%
    12:00 +28°C° 0 mm 1 mps 749 mmHg 61%
    13:00 +29°C° 0 mm 2 mps 749 mmHg 58%
    14:00 +28°C° 0 mm 2 mps 748 mmHg 61%
    15:00 +28°C° 0 mm 2 mps 748 mmHg 64%
    16:00 +27°C° 0 mm 2 mps 747 mmHg 67%
    17:00 +26°C° 0 mm 2 mps 748 mmHg 75%
    18:00 +24°C° 0 mm 1 mps 748 mmHg 83%
    19:00 +22°C° 0 mm 1 mps 749 mmHg 91%
    20:00 +22°C° 0 mm 1 mps 749 mmHg 91%
    21:00 +20°C° 0 mm 0 mps 750 mmHg 92%
    22:00 +19°C° 0 mm 0 mps 750 mmHg 92%
    23:00 +19°C° 0 mm 0 mps 750 mmHg 92%

    Tomorrow, 26 February, Wednesday

    Time Temperature Precipitation Wind Pressure Humidity
    00:00 +18°C° 0 mm 0 mps 750 mmHg 92%
    01:00 +18°C° 0 mm 0 mps 749 mmHg 92%
    02:00 +18°C° 0 mm 0 mps 749 mmHg 92%
    03:00 +18°C° 0 mm 0 mps 749 mmHg 93%
    04:00 +18°C° 0 mm 0 mps 749 mmHg 94%
    05:00 +18°C° 0 mm 0 mps 749 mmHg 93%
    06:00 +18°C° 0 mm 0 mps 750 mmHg 92%
    07:00 +19°C° 0 mm 0 mps 750 mmHg 91%
    08:00 +20°C° 0 mm 0 mps 751 mmHg 85%
    09:00 +24°C° 0 mm 1 mps 751 mmHg 78%
    10:00 +26°C° 0 mm 1 mps 751 mmHg 72%
    11:00 +27°C° 0 mm 1 mps 751 mmHg 68%
    12:00 +28°C° 0 mm 1 mps 750 mmHg 65%
    13:00 +29°C° 0 mm 2 mps 749 mmHg 61%
    14:00 +28°C° 0 mm 2 mps 749 mmHg 65%
    15:00 +28°C° 0 mm 2 mps 748 mmHg 70%
    16:00 +27°C° 0 mm 3 mps 748 mmHg 74%
    17:00 +26°C° 0 mm 2 mps 748 mmHg 80%
    18:00 +25°C° 0 mm 2 mps 748 mmHg 87%
    19:00 +23°C° 0 mm 1 mps 749 mmHg 93%
    20:00 +23°C° 0 mm 1 mps 749 mmHg 93%
    21:00 +23°C° 0 mm 1 mps 750 mmHg 93%
    22:00 +23°C° 0 mm 1 mps 750 mmHg 93%
    23:00 +22°C° 0 mm 1 mps 750 mmHg 94%

    Day after tomorrow, 27 February, Thursday

    Time Temperature Precipitation Wind Pressure Humidity
    00:00 +22°C° 0 mm 1 mps 750 mmHg 95%
    01:00 +22°C° 0 mm 1 mps 749 mmHg 96%
    02:00 +22°C° 0.1 mm 1 mps 749 mmHg 96%
    03:00 +22°C° 0.1 mm 1 mps 749 mmHg 96%
    04:00 +20°C° 0.1 mm 0 mps 748 mmHg 96%
    05:00 +20°C° 0.1 mm 0 mps 749 mmHg 95%
    06:00 +20°C° 0.1 mm 0 mps 749 mmHg 94%
    07:00 +21°C° 0.1 mm 0 mps 750 mmHg 93%
    08:00 +24°C° 0.1 mm 1 mps 750 mmHg 87%
    09:00 +25°C° 0.1 mm 1 mps 751 mmHg 81%
    10:00 +27°C° 0.1 mm 1 mps 751 mmHg 75%
    11:00 +27°C° 0.2 mm 2 mps 750 mmHg 74%
    12:00 +28°C° 0.2 mm 2 mps 749 mmHg 72%
    13:00 +28°C° 0.2 mm 2 mps 748 mmHg 71%
    14:00 +28°C° 0.3 mm 2 mps 748 mmHg 73%
    15:00 +27°C° 0.3 mm 2 mps 748 mmHg 76%
    16:00 +27°C° 0.3 mm 2 mps 747 mmHg 79%
    17:00 +26°C° 0.2 mm 2 mps 748 mmHg 84%
    18:00 +25°C° 0.2 mm 1 mps 748 mmHg 89%
    19:00 +24°C° 0.2 mm 1 mps 748 mmHg 94%
    20:00 +23°C° 0 mm 1 mps 749 mmHg 95%
    21:00 +21°C° 0 mm 0 mps 749 mmHg 95%
    22:00 +20°C° 0 mm 0 mps 750 mmHg 95%
    23:00 +20°C° 0 mm 0 mps 749 mmHg 95%

    28 February, Friday

    Time Temperature Precipitation Wind Pressure Humidity
    00:00 +20°C° 0 mm 0 mps 749 mmHg 95%
    01:00 +20°C° 0 mm 0 mps 748 mmHg 95%
    02:00 +20°C° 0 mm 0 mps 748 mmHg 95%
    03:00 +20°C° 0 mm 0 mps 748 mmHg 95%
    04:00 +19°C° 0 mm 0 mps 747 mmHg 95%
    05:00 +20°C° 0 mm 0 mps 748 mmHg 95%
    06:00 +20°C° 0 mm 0 mps 748 mmHg 94%
    07:00 +20°C° 0 mm 0 mps 749 mmHg 94%
    08:00 +23°C° 0 mm 1 mps 749 mmHg 88%
    09:00 +25°C° 0 mm 1 mps 750 mmHg 81%
    10:00 +26°C° 0 mm 1 mps 750 mmHg 75%
    11:00 +27°C° 0 mm 2 mps 749 mmHg 72%
    12:00 +28°C° 0 mm 2 mps 749 mmHg 69%
    13:00 +29°C° 0 mm 2 mps 748 mmHg 66%
    14:00 +28°C° 0 mm 2 mps 747 mmHg 69%
    15:00 +28°C° 0 mm 2 mps 747 mmHg 71%
    16:00 +28°C° 0 mm 2 mps 746 mmHg 74%
    17:00 +26°C° 0 mm 2 mps 746 mmHg 80%
    18:00 +25°C° 0 mm 1 mps 746 mmHg 86%
    19:00 +23°C° 0 mm 1 mps 747 mmHg 92%
    20:00 +23°C° 0 mm 1 mps 747 mmHg 92%
    21:00 +21°C° 0 mm 0 mps 748 mmHg 92%
    22:00 +20°C° 0 mm 0 mps 748 mmHg 92%
    23:00 +20°C° 0 mm 0 mps 748 mmHg 92%

    29 February, Saturday

    Time Temperature Precipitation Wind Pressure Humidity
    00:00 +20°C° 0 mm 0 mps 747 mmHg 91%
    01:00 +19°C° 0 mm 0 mps 747 mmHg 91%
    02:00 +19°C° 0 mm 0 mps 746 mmHg 91%
    03:00 +19°C° 0 mm 0 mps 746 mmHg 92%
    04:00 +19°C° 0 mm 0 mps 746 mmHg 92%
    05:00 +19°C° 0 mm 0 mps 746 mmHg 92%
    06:00 +19°C° 0 mm 0 mps 746 mmHg 91%
    07:00 +20°C° 0 mm 0 mps 747 mmHg 91%
    08:00 +21°C° 0 mm 0 mps 747 mmHg 84%
    09:00 +25°C° 0 mm 1 mps 748 mmHg 78%
    10:00 +27°C° 0 mm 1 mps 748 mmHg 72%
    11:00 +28°C° 0 mm 1 mps 747 mmHg 69%
    12:00 +29°C° 0 mm 1 mps 746 mmHg 66%
    13:00 +29°C° 0 mm 1 mps 745 mmHg 63%
    14:00 +29°C° 0 mm 2 mps 745 mmHg 65%
    15:00 +29°C° 0 mm 2 mps 744 mmHg 67%
    16:00 +29°C° 0 mm 2 mps 744 mmHg 69%
    17:00 +27°C° 0 mm 2 mps 744 mmHg 77%
    18:00 +26°C° 0 mm 1 mps 745 mmHg 84%
    19:00 +22°C° 0 mm 0 mps 745 mmHg 92%
    20:00 +22°C° 0 mm 0 mps 745 mmHg 92%
    21:00 +22°C° 0 mm 0 mps 746 mmHg 91%
    22:00 +22°C° 0 mm 0 mps 746 mmHg 90%
    23:00 +21°C° 0 mm 0 mps 746 mmHg 90%

    1 March, Sunday

    Time Temperature Precipitation Wind Pressure Humidity
    00:00 +21°C° 0 mm 0 mps 746 mmHg 90%
    01:00 +21°C° 0 mm 0 mps 745 mmHg 90%
    02:00 +21°C° 0 mm 0 mps 745 mmHg 90%
    03:00 +21°C° 0 mm 0 mps 745 mmHg 90%
    04:00 +20°C° 0 mm 0 mps 745 mmHg 90%
    05:00 +21°C° 0 mm 0 mps 745 mmHg 89%
    06:00 +21°C° 0 mm 0 mps 745 mmHg 88%
    07:00 +21°C° 0 mm 0 mps 746 mmHg 87%
    08:00 +23°C° 0 mm 0 mps 746 mmHg 79%
    09:00 +25°C° 0 mm 0 mps 747 mmHg 71%
    10:00 +30°C° 0 mm 1 mps 747 mmHg 63%
    11:00 +30°C° 0 mm 1 mps 746 mmHg 61%
    12:00 +31°C° 0 mm 2 mps 745 mmHg 58%
    13:00 +32°C° 0 mm 2 mps 744 mmHg 56%
    14:00 +31°C° 0.1 mm 2 mps 744 mmHg 62%
    15:00 +30°C° 0.1 mm 2 mps 744 mmHg 68%
    16:00 +29°C° 0.1 mm 2 mps 743 mmHg 74%
    17:00 +28°C° 0 mm 2 mps 744 mmHg 80%
    18:00 +27°C° 0 mm 1 mps 744 mmHg 86%
    19:00 +23°C° 0 mm 0 mps 744 mmHg 91%
    20:00 +23°C° 0 mm 0 mps 745 mmHg 91%
    21:00 +23°C° 0 mm 0 mps 745 mmHg 91%
    22:00 +22°C° 0 mm 0 mps 745 mmHg 91%
    23:00 +22°C° 0 mm 0 mps 745 mmHg 92%
    Show more